Weather Roundup
Issued by NWS Chicago, IL

Home | Current Version | Previous Version | Text Only | Print | Product List | Glossary Off
Versions: 1 2 3 4 5 6 7 8 9 10 11 12 13 14 15 16 17 18 19 20 21 22 23 24 25 26 27 28 29 30 31 32 33 34 35 36 37 38 39 40 41 42 43 44 45 46 47 48 49 50

000
NZUS59 KLOT 271400
HRRLOT

CHICAGO AREA WEATHER ROUNDUP
NATIONAL WEATHER SERVICE CHICAGO/ROMEOVILLE IL
800 AM CST FRI FEB 27 2015

NOTE: "FAIR" INDICATES FEW OR NO CLOUDS BELOW 12,000 FEET WITH NO
SIGNIFICANT WEATHER AND/OR OBSTRUCTIONS TO VISIBILITY.

* THESE STATIONS ARE NOT UNDER NWS QUALITY CONTROL. THEY ALSO MAY NOT
  REPORT WEATHER SUCH AS PRECIPITATION OR FOG.

ILZ005-006-012>014-019>023-271500-
NORTHEAST ILLINOIS

CITY           SKY/WX    TMP DP  RH WIND       PRES   REMARKS
OHARE          MOSUNNY    1  -9  62 NW8       30.55R WCI -13
MIDWAY         MOSUNNY    5  -4  66 NW6       30.56R WCI  -6
AURORA         SUNNY     -8 -14  74 W7        30.57R WCI -23
WAUKEGAN       SUNNY      1  -9  62 W8        30.53R WCI -13
DUPAGE AIRPORT SUNNY      1  -8  66 NW9       30.54R WCI -14
WHEELING       SUNNY      3  -9  57 NW8       30.57R WCI -10
NORTHERLY IS     N/A     10  -2  58 W6          N/A  WCI   1
$$

WIZ051-052-058>065-066-070>072-271500-
SOUTHEAST WISCONSIN

CITY           SKY/WX    TMP DP  RH WIND       PRES   REMARKS
MILWAUKEE      SUNNY      3  -8  60 NW6       30.53R WCI  -8
KENOSHA*       SUNNY     -1 -10  65 W9        30.53R WCI -16
RACINE*        SUNNY      0 -10  63 W10       30.54R WCI -16
WAUKESHA       SUNNY     -2  -9  71 W8        30.52R WCI -17
$$

INZ001>003-010>013-019-020-271500-
NORTHWEST INDIANA

CITY           SKY/WX    TMP DP  RH WIND       PRES   REMARKS
GARY*          SUNNY      7  -4  61 W9        30.56R WCI  -7
MICHIGAN CITY* NOT AVBL
RENSSELAER*    NOT AVBL
$$

LMZ740>746-271500-
SOUTHERN LAKE MICHIGAN

STATION/POSITION TIME  SKY/WX   TEMP WIND        PRES    VSBY
                                AIR  DIR/SP/G
                 (UTC)          (F)  (DEG/KT/KT) (MB)    (MI)
HARRISON CRIB    1300             6  290/ 11/ 12   N/A
BURNHAM HARBOR   1400             9  280/  7/  9   N/A
CALUMET HARBOR   1300             6  260/  4/  8 1032.9R
BURNS HARBOR     NOT AVBL
MICHIGAN CITY    1300             5  170/  5/  6   N/A
$$

ABBREVIATIONS USED IN REMARKS
   TC - TEMPERATURE IN CELSIUS
  WCI - WIND CHILL INDEX
   HX - HEAT INDEX
  VSB - VISIBILITY
$$


USA.gov is the U.S. government's official web portal to all federal, state and local government web resources and services.